Location: Clanezzo
(45.7500°N, 9.6000°E)
Time: 13:24:02
(UTC+00:00)

USA 308 - Pass Details

Date: 25 September 2021
Orbit: 566 x 573 km, 54.0° (Epoch: 23 September)

Event Time Altitude Azimuth Distance (km) Brightness Sun altitude
Rises 19:23:30 0° 303° (WNW) 2,772 7.8 -23.0°
Reaches altitude 10° 19:25:50 10° 310° (NW) 1,874 6.5 -23.4°
Enters shadow 19:29:47 43° 17° (NNE) 808 3.6 -24.0°
